Location: Quaker Farms
(41.4276°N, 73.1557°W)
Time: 22:13:51
(UTC+00:00)

Vanguard 1 - Pass Details

Date: 15 June 2021
Orbit: 651 x 3832 km, 34.2° (Epoch: 25 July)

Event Time Altitude Azimuth Distance (km) Brightness Sun altitude
Rises 00:23:10 0° 201° (SSW) 7,831 14.5 -0.1°
Reaches altitude 10° 00:29:55 10° 190° (S) 6,920 14.2 -1.2°
Maximum altitude 00:47:10 28° 142° (SE) 5,205 13.2 -3.8°
Drops below altitude 10° 01:01:02 10° 93° (E) 5,611 13.4 -5.9°
Sets 01:05:34 0° 83° (E) 6,192 13.7 -6.6°
